Location: El Álamo
(40.2307°N, 3.9945°W)
Time: 03:24:32
(UTC+00:00)

Terra - Pass Details

Date: 19 May 2025
Orbit: 690 x 691 km, 98.0° (Epoch: 23 June)

Event Time Altitude Azimuth Distance (km) Brightness Sun altitude
Exits shadow 20:50:12 20° 146° (SE) 1,584 3.0 -13.6°
Maximum altitude 20:53:20 56° 73° (ENE) 818 2.0 -14.0°
Drops below altitude 10° 20:57:57 10° 356° (N) 2,151 5.0 -14.7°
Sets 21:00:14 0° 352° (N) 3,071 6.0 -15.0°
